This is the latest recevied weather packets stored in our database for station/object K2ATL. If no packets are shown the sender has not sent any weather packets the latest 1 day(s).
| Time | Temp. | Humidity | Pressure | Rain* | Wind** | Luminosity | Snow |
|---|---|---|---|---|---|---|---|
| 1778078474 | 15.56° C | 94% | 1100.8 hPa | 0 mm | - | 37 W/m² | - |
| 1778077870 | 16.11° C | 93% | 1100.8 hPa | 0 mm | - | 16 W/m² | - |
| 1778077568 | 16.11° C | 93% | 1100.3 hPa | 0 mm | - | 35 W/m² | - |
| 1778077266 | 16.11° C | 92% | 1100.4 hPa | 0 mm | - | 28 W/m² | - |
| 1778076963 | 16.67° C | 89% | 1100.5 hPa | 0 mm | - | 17 W/m² | - |
| 1778073630 | 16.67° C | 85% | 1100 hPa | 0 mm | - | 21 W/m² | - |
| 1778073327 | 16.67° C | 85% | 1099.9 hPa | 0 mm | - | 20 W/m² | - |
| 1778072720 | 16.67° C | 84% | 1099.6 hPa | 0 mm | - | 31 W/m² | - |
| 1778071511 | 16.67° C | 83% | 1099.5 hPa | 0 mm | - | 39 W/m² | - |
| 1778070604 | 16.67° C | 82% | 1099.6 hPa | 0 mm | - | 22 W/m² | - |
| 1778069999 | 16.67° C | 82% | 1099.4 hPa | 0 mm | - | 36 W/m² | - |
| 1778069090 | 16.67° C | 81% | 1099.3 hPa | 0 mm | - | 23 W/m² | - |
| 1778068787 | 16.67° C | 81% | 1099.4 hPa | 0 mm | - | 15 W/m² | - |
| 1778068485 | 16.67° C | 81% | 1099.4 hPa | 0 mm | - | 17 W/m² | - |
| 1778068183 | 16.67° C | 81% | 1099.4 hPa | 0 mm | - | 14 W/m² | - |
| 1778067880 | 16.67° C | 81% | 1099.3 hPa | 0 mm | - | 15 W/m² | - |
| 1778066065 | 16.67° C | 82% | 1098.9 hPa | 0 mm | - | 6 W/m² | - |
| 1778065762 | 16.67° C | 82% | 1098.8 hPa | 0 mm | - | 2 W/m² | - |
| 1778065460 | 16.67° C | 82% | 1098.6 hPa | 0 mm | - | 3 W/m² | - |
| 1778065156 | 16.67° C | 82% | 1098.9 hPa | 0 mm | - | 2 W/m² | - |
| 1778064550 | 16.67° C | 81% | 1098.8 hPa | 0 mm | - | 1 W/m² | - |
| 1778064248 | 16.67° C | 81% | 1098.9 hPa | 0 mm | - | 1 W/m² | - |
| 1778063038 | 17.22° C | 79% | 1098.8 hPa | 0 mm | - | 0 W/m² | - |
| 1778061827 | 17.22° C | 77% | 1098.3 hPa | 0 mm | - | 0 W/m² | - |
| 1778061222 | 17.22° C | 77% | 1098.6 hPa | 0 mm | - | 0 W/m² | - |
* Rain latest hour (hover to see other rain measurements)
** Current wind speed in m/s (hover to see current wind gust speed)